Wind_Speed
52 51 50 49 48 47 46 44 43 42 41 40 40 39 39 39 39 39 40 41 42 44 44 43 41 37 34 32 30 29 29 29 28 28 28 27 27 27 26 26 26 25 25 25 25 25 25 25 24 24 24 24 24 24 23 23 23 23 23 24 24 23 23 23 24 24 24 24 23 22 22 21 20 19 19 19 18 19 19 19 19 19 19 18 18 18
52 51 49 48 47 46 45 43 41 40 40 39 39 38 38 39 39 40 41 42 43 43 42 39 36 33 31 30 29 28 28 28 28 28 28 27 27 26 26 26 26 25 25 25 25 25 25 25 24 24 24 24 24 23 23 23 23 23 23 23 23 23 23 23 24 24 24 23 23 22 21 20 20 19 19 19 19 19 19 19 19 19 19 18 18 18
51 49 48 47 45 44 43 42 40 39 38 38 38 38 38 39 40 41 43 44 43 41 38 35 32 30 29 28 28 28 28 28 28 28 27 27 27 26 26 26 26 26 26 26 26 25 25 25 25 24 24 24 24 24 23 23 23 23 23 23 23 23 24 24 24 23 23 23 22 21 21 20 20 20 19 19 19 19 19 19 19 19 19 18 18 18
49 47 46 45 44 42 41 40 39 38 37 37 38 38 38 40 41 43 44 43 41 38 35 32 31 29 28 28 28 28 28 28 28 28 27 27 27 26 26 26 26 26 26 26 26 26 25 25 25 25 24 24 24 24 24 24 24 24 23 23 23 23 24 24 23 23 23 22 22 21 21 20 20 20 19 19 19 19 19 19 19 19 19 18 18 18
47 46 45 43 42 41 40 38 38 37 38 38 38 38 40 41 43 44 43 41 38 35 33 31 30 29 28 28 28 28 28 28 28 27 27 27 27 27 27 27 27 27 27 26 26 26 26 26 25 25 25 25 24 24 24 24 24 24 23 23 23 23 24 23 23 23 22 22 21 21 21 20 20 20 20 19 19 19 19 19 19 19 19 18 18 18
45 44 43 42 41 40 39 38 38 38 38 38 39 40 41 43 44 44 42 39 36 34 33 31 30 29 28 28 28 28 28 28 27 27 27 27 27 27 27 28 27 27 27 27 26 26 26 26 26 25 25 25 24 24 24 24 23 23 23 23 23 23 23 23 23 23 22 22 21 21 21 21 20 20 20 19 19 19 19 19 19 19 19 18 18 18
44 42 41 40 40 39 38 38 38 38 39 39 40 42 43 44 44 42 40 37 35 34 32 31 30 29 29 29 28 28 28 27 27 27 27 27 28 28 28 28 28 28 27 27 27 26 26 25 25 25 24 24 24 23 23 23 23 23 23 23 23 23 23 23 23 23 22 22 21 21 21 21 20 20 20 20 19 19 19 19 19 19 19 18 18 18
42 41 40 39 39 39 38 38 38 39 39 41 42 43 44 44 43 40 38 35 34 33 31 30 30 29 29 29 28 28 27 27 27 27 27 28 28 28 29 28 28 28 27 27 26 25 25 24 24 24 23 23 23 23 22 22 22 23 23 23 23 23 23 23 23 22 22 22 22 21 21 21 21 20 20 20 20 20 19 19 19 19 19 18 18 18
40 40 39 39 38 39 39 39 39 39 40 42 43 44 44 43 41 38 35 34 33 32 31 30 30 30 30 29 28 27 27 27 27 27 28 28 28 29 29 28 28 27 26 25 25 24 23 23 23 22 22 22 22 22 22 22 22 22 23 23 23 23 23 23 23 23 22 22 22 22 21 21 21 21 20 20 20 20 20 19 19 19 19 19 18 18
39 39 39 39 39 39 39 40 40 41 42 43 44 44 43 41 38 36 34 32 32 31 30 30 30 30 29 28 28 27 27 27 27 27 28 28 29 29 28 28 27 26 25 24 23 23 22 22 22 21 21 21 21 22 22 22 22 23 23 23 23 23 23 23 23 23 23 22 22 22 22 22 21 21 21 21 20 20 20 20 20 19 19 19 19 19
39 39 39 39 39 40 40 40 41 42 42 43 43 42 40 38 36 34 33 32 31 31 30 30 30 30 29 28 27 27 27 27 27 28 28 28 28 28 27 26 25 24 23 22 22 21 21 21 21 21 21 21 22 22 22 22 23 23 23 23 24 24 24 23 23 23 23 23 22 22 22 22 22 22 21 21 21 21 20 20 20 20 20 20 20 20
39 39 40 40 41 41 41 41 42 42 43 43 43 41 38 36 34 33 32 31 31 30 30 30 30 29 28 27 27 26 27 27 28 28 28 28 27 27 26 24 23 22 22 21 21 21 21 21 21 21 22 22 22 22 23 23 23 24 24 24 24 24 24 24 24 23 23 23 23 23 23 22 22 22 22 22 21 21 21 21 21 21 21 20 21 21
40 40 40 41 42 42 42 42 42 43 43 43 42 40 37 35 34 33 32 31 31 30 30 29 29 28 27 27 26 26 27 27 28 28 28 27 26 25 24 23 22 22 21 21 21 21 21 21 22 22 22 22 22 23 23 24 24 24 24 25 25 25 24 24 24 24 24 23 23 23 23 23 23 22 22 22 22 22 22 22 22 21 21 21 21 22
41 41 42 43 43 43 43 43 43 43 44 44 42 40 37 35 34 33 32 31 31 30 29 28 28 27 26 26 26 27 27 27 27 27 26 26 25 24 23 22 22 21 21 21 21 21 22 22 22 22 23 23 23 23 24 24 25 25 25 25 25 25 25 25 24 24 24 24 24 24 23 23 23 23 23 23 23 23 23 23 23 22 22 22 23 23
43 44 44 45 45 44 44 44 43 44 44 44 43 41 38 36 34 33 32 31 30 29 28 27 27 26 26 26 26 27 27 27 27 26 25 24 23 23 22 22 21 21 21 21 21 22 22 22 22 23 23 23 24 24 24 25 25 25 25 25 25 25 25 25 25 24 24 24 24 24 24 24 23 23 23 23 23 23 23 24 24 23 24 24 24 24
46 47 47 47 46 45 44 43 43 43 44 44 43 41 38 36 34 33 31 30 29 28 27 26 26 26 26 26 26 27 27 26 26 25 24 23 23 22 22 22 21 21 21 21 22 22 22 23 23 23 23 24 24 24 25 25 25 26 26 26 26 25 25 25 25 25 24 24 24 24 24 24 24 24 24 24 24 24 24 24 25 25 25 25 25 25
48 49 48 48 46 45 44 43 43 43 44 44 42 40 37 35 33 32 30 29 27 27 26 26 26 26 26 26 26 26 26 25 24 24 23 22 22 22 22 22 22 22 22 22 22 23 23 23 24 24 24 24 24 25 25 25 26 26 26 26 25 25 25 25 25 25 24 24 24 24 24 24 24 24 24 24 25 25 25 25 26 26 26 26 26 26
49 49 48 47 46 44 43 43 43 43 43 42 40 38 35 33 31 30 28 27 26 26 25 25 25 26 26 26 26 25 25 24 24 23 22 22 22 22 22 22 22 22 22 22 23 23 24 24 24 24 24 25 25 25 26 26 26 26 26 26 25 25 25 25 25 24 24 24 24 24 24 24 24 24 25 25 25 26 26 26 26 27 27 27 27 27
48 47 47 46 44 44 43 43 43 42 41 40 37 35 33 31 29 28 27 26 25 25 25 25 25 26 26 26 25 25 24 23 23 22 22 22 22 22 22 23 23 23 23 23 23 24 24 25 25 25 25 25 25 26 26 26 26 26 26 26 25 25 25 25 25 24 24 24 24 24 24 24 24 25 25 25 26 26 26 27 27 27 28 28 28 28
47 46 45 44 43 42 42 41 41 40 38 36 34 32 30 28 27 26 25 25 25 25 25 25 25 25 25 25 24 24 23 23 23 22 22 22 22 22 23 23 23 23 24 24 24 24 25 25 25 25 25 26 26 26 26 26 26 26 26 26 25 25 25 25 25 25 24 24 24 24 24 25 25 25 25 26 26 26 27 27 28 28 28 28 28 29
44 44 43 42 42 41 40 39 38 36 34 32 30 29 27 26 25 25 24 24 24 25 25 25 25 25 25 24 24 23 23 23 23 22 22 22 23 23 24 24 24 24 24 24 25 25 25 25 26 26 26 26 26 26 26 26 26 26 26 26 25 25 25 25 25 25 25 24 24 24 25 25 25 25 26 26 26 27 27 28 28 28 29 29 29 29
42 42 41 40 39 38 37 36 34 32 30 29 28 26 25 25 24 24 24 24 24 25 25 25 25 24 24 24 23 23 23 23 23 23 23 23 23 24 24 25 25 25 25 25 25 26 26 26 26 26 26 26 26 27 27 27 26 26 26 26 26 25 25 25 25 25 25 25 25 25 25 25 25 26 26 26 27 27 28 28 28 29 29 29 29 29
40 39 38 38 36 35 34 32 30 29 27 26 26 25 24 24 24 24 24 24 25 25 25 25 24 24 24 23 23 23 23 23 23 23 23 23 24 24 25 26 26 26 26 26 26 26 26 26 27 27 27 27 27 27 27 27 27 26 26 26 26 26 26 25 25 25 25 25 25 25 25 26 26 26 26 27 27 28 28 28 29 29 29 29 29 29
37 37 36 35 33 32 30 29 28 26 25 25 25 24 24 24 24 24 24 24 25 25 24 24 24 24 24 24 24 23 24 24 24 24 24 24 24 25 25 26 26 26 26 27 27 27 27 27 27 27 27 27 27 27 27 27 27 27 26 26 26 26 26 26 26 26 26 26 26 26 26 26 26 27 27 27 28 28 28 29 29 29 29 29 29 29
35 34 33 32 31 29 28 27 26 25 25 24 24 24 23 23 24 24 24 25 25 24 24 24 24 24 24 24 24 24 24 24 24 24 24 24 25 25 26 26 27 27 27 27 27 28 28 28 28 28 27 27 27 27 27 27 27 27 27 27 27 26 26 26 26 26 26 26 26 26 26 27 27 27 27 28 28 28 28 29 29 29 29 29 29 29
33 32 31 30 29 28 27 26 25 25 24 24 24 23 24 24 24 24 24 24 24 24 24 24 24 24 24 24 24 24 25 25 25 25 25 25 25 26 26 27 27 27 27 28 28 28 28 28 28 28 28 28 28 28 28 28 27 27 27 27 27 27 27 27 27 26 26 26 27 27 27 27 27 27 28 28 28 28 28 29 29 29 29 29 29 30
32 31 30 29 28 27 26 26 25 25 24 24 24 24 24 24 24 24 24 24 25 25 24 24 24 24 24 24 24 25 25 25 25 26 26 26 26 26 27 27 28 28 28 28 28 29 29 29 29 28 28 28 28 28 28 28 28 28 27 27 27 27 27 27 27 27 27 27 27 27 27 27 27 28 28 28 28 28 28 29 29 29 29 29 30 30
31 30 29 29 28 27 26 25 25 24 24 24 24 24 24 24 25 25 25 25 25 25 25 25 25 25 25 25 25 25 25 25 26 26 27 27 27 27 27 28 28 28 28 28 29 29 29 29 29 29 29 29 28 28 28 28 28 28 28 28 28 27 27 27 28 27 27 27 27 27 27 28 28 28 28 28 28 28 29 29 29 29 30 30 30 30
31 30 30 29 28 27 26 25 24 24 24 24 24 24 25 25 25 25 25 25 25 25 25 25 25 25 25 25 25 25 26 26 26 27 27 27 27 27 28 28 28 28 28 29 29 29 29 29 29 29 29 29 29 29 29 29 28 28 28 28 28 28 28 28 28 28 28 28 28 28 28 28 28 28 28 28 29 29 29 29 30 30 30 30 30 31
31 30 30 29 28 27 26 25 24 24 24 25 25 25 25 25 25 25 25 25 26 25 25 25 25 25 25 25 25 25 26 26 27 27 27 27 28 28 28 28 28 28 29 29 29 29 29 29 29 29 29 29 29 29 29 29 29 28 28 28 28 28 29 29 29 29 29 29 29 29 29 28 29 29 29 29 29 29 30 30 30 30 31 31 31 31
31 31 30 29 28 26 25 25 25 25 25 25 25 25 26 26 26 26 26 26 26 26 25 25 25 25 25 25 25 26 26 26 27 28 28 28 28 28 28 28 28 29 29 29 29 29 29 30 30 29 29 29 29 29 29 29 29 29 29 29 29 29 29 29 29 29 29 29 29 29 29 29 29 29 29 30 30 30 30 31 31 31 31 31 32 32
32 31 30 29 27 26 26 25 25 25 26 26 26 26 26 26 26 26 26 26 26 26 25 25 25 25 25 25 26 26 26 27 27 28 28 28 28 28 28 28 28 29 29 29 30 30 30 30 30 30 30 30 29 29 29 29 29 29 29 29 29 29 30 30 30 30 30 30 30 30 30 30 30 30 30 31 31 31 31 31 31 32 32 32 32 33
32 31 30 28 27 26 26 26 26 26 26 26 26 27 27 27 27 27 27 26 26 26 26 26 26 26 26 26 26 26 27 27 28 28 28 28 28 28 28 28 29 29 29 30 30 30 30 30 30 30 30 30 30 30 30 30 29 29 29 29 30 30 30 30 30 31 31 31 31 31 31 31 31 31 31 31 31 31 32 32 32 32 33 33 33 33
32 31 30 28 27 27 26 26 26 27 27 27 27 27 27 27 27 27 27 27 26 26 26 26 26 26 26 26 27 27 27 27 28 28 28 28 28 28 28 28 29 29 29 30 30 30 30 30 30 30 30 30 30 30 30 30 30 30 30 30 30 30 31 31 31 31 31 31 31 31 32 32 32 32 32 32 32 32 32 32 33 33 33 34 34 34
32 31 29 28 27 27 27 27 27 27 27 27 27 28 28 28 28 27 27 27 27 27 27 27 27 27 27 27 27 27 27 28 28 28 29 28 28 28 28 29 29 29 30 30 30 30 30 30 30 30 30 30 30 30 30 30 30 30 30 30 31 31 31 31 31 31 32 32 32 32 32 32 32 32 32 32 33 33 33 33 33 34 34 34 34 34
31 30 29 28 27 27 27 27 27 27 28 28 28 28 28 28 28 28 28 27 27 27 27 27 27 28 28 28 28 28 28 28 29 29 29 29 29 29 29 29 29 29 30 30 30 30 30 30 30 30 30 30 30 30 30 30 30 31 31 31 31 31 31 31 32 32 32 32 32 33 33 33 33 33 33 33 33 33 34 34 34 34 35 35 35 35
30 29 28 28 28 27 28 28 28 28 28 28 28 28 28 28 28 28 28 28 28 28 28 28 28 28 28 28 28 28 28 29 29 29 29 29 29 29 29 29 29 30 30 30 30 30 30 30 30 30 30 30 30 30 30 31 31 31 31 31 31 31 32 32 32 32 32 33 33 33 33 33 33 33 34 34 34 34 34 35 35 35 35 35 35 35
30 29 28 28 28 28 28 28 28 28 28 29 29 29 29 29 29 29 29 29 29 29 29 29 29 29 29 29 29 29 29 29 30 30 30 30 30 30 30 30 30 30 30 30 30 30 30 30 30 30 30 30 30 30 31 31 31 31 32 32 32 32 32 32 32 32 33 33 33 33 34 34 34 34 34 35 35 35 35 35 35 35 35 35 35 35
29 29 28 28 28 28 28 28 28 29 29 29 29 29 29 29 29 29 29 29 29 29 29 29 30 30 30 30 30 30 30 30 30 30 30 31 30 30 30 30 30 30 30 30 31 31 31 31 31 31 31 31 31 30 31 31 31 32 32 32 32 32 32 32 33 33 33 34 34 34 34 34 34 35 35 35 35 35 36 36 35 35 35 35 35 35
29 29 28 28 28 28 29 29 29 29 29 30 30 30 30 30 30 30 30 30 30 30 30 30 30 30 30 31 31 31 31 31 31 31 31 31 31 31 31 31 31 31 31 31 31 31 31 31 31 31 31 31 31 31 31 31 32 32 32 33 33 33 33 33 33 33 34 34 34 34 34 34 34 35 35 35 36 36 36 36 35 35 35 35 35 35
29 29 29 29 29 29 29 29 30 30 30 30 30 30 30 30 30 30 31 31 31 31 31 31 31 31 31 31 31 32 32 32 32 32 32 32 32 32 32 31 31 31 31 31 31 31 31 32 32 32 32 32 31 31 31 32 32 32 33 33 33 33 33 33 33 34 34 34 34 34 34 34 34 35 35 35 35 35 35 35 35 35 35 35 35 36
30 29 29 29 30 30 30 30 30 30 31 31 31 31 31 31 31 31 31 31 31 31 32 32 32 32 32 32 32 32 32 33 33 33 33 33 32 32 32 32 32 32 32 32 32 32 32 32 32 32 32 32 32 32 32 32 32 32 33 33 33 33 33 33 33 34 34 34 34 34 34 34 34 35 35 35 35 35 35 35 35 36 36 36 36 36
30 30 30 30 30 30 30 31 31 31 31 31 32 32 32 32 32 32 32 32 32 32 32 32 33 33 33 33 33 33 33 33 33 33 33 33 33 33 33 33 32 32 32 32 32 32 32 33 33 33 33 33 33 33 33 33 33 33 33 33 33 33 33 33 33 33 33 33 33 33 33 34 34 34 34 35 35 35 35 36 36 36 36 36 36 36
30 30 30 31 31 31 31 31 31 32 32 32 32 32 33 33 33 33 33 33 33 33 33 33 34 34 34 34 34 34 34 34 34 34 34 34 34 34 33 33 33 33 33 33 33 33 33 33 33 33 33 33 34 34 34 34 34 34 34 33 33 33 33 32 33 33 33 33 33 33 33 33 34 34 34 35 35 35 36 36 36 36 36 36 36 36
31 31 31 31 31 32 32 32 32 32 33 33 33 33 33 34 34 34 34 34 34 34 34 34 34 35 35 35 34 34 34 35 35 35 35 35 35 34 34 34 34 34 34 34 34 34 34 34 34 34 34 34 34 35 35 35 35 35 34 34 33 33 33 33 32 32 32 33 33 33 33 34 34 34 35 35 35 36 36 36 36 36 36 36 36 36
31 31 32 32 32 32 32 33 33 33 33 34 34 34 34 34 35 35 35 35 35 35 35 35 35 36 36 35 35 35 35 35 36 36 36 35 35 35 35 35 35 34 34 35 35 35 35 35 35 35 35 35 35 35 36 36 36 36 36 35 34 34 33 33 33 33 33 33 33 33 33 34 34 35 36 36 36 36 37 36 36 36 36 36 36 36
32 32 32 33 33 33 33 34 34 34 34 35 35 35 35 35 35 35 36 36 36 36 36 36 36 36 37 37 36 36 36 36 36 36 36 36 36 36 35 35 35 35 35 35 35 35 35 36 36 36 36 36 36 36 37 37 37 37 37 36 36 35 35 34 34 34 33 33 33 33 34 35 35 36 36 37 37 37 37 37 36 36 36 36 36 36
33 33 33 33 34 34 34 35 35 35 35 35 36 36 36 36 36 37 37 37 37 37 37 37 37 37 38 37 37 37 37 37 37 37 37 36 36 36 36 36 36 36 36 36 36 36 36 36 36 36 36 37 37 37 38 38 38 38 38 38 37 36 36 36 35 35 34 34 34 35 35 36 36 37 37 38 38 38 37 37 37 36 36 36 36 36
33 34 34 34 35 35 35 36 36 36 36 36 37 37 37 37 37 38 38 38 38 38 38 38 38 38 38 38 38 38 38 38 38 38 37 37 37 37 37 36 36 37 37 37 37 37 37 37 37 37 37 38 38 38 39 39 39 39 39 39 38 38 38 37 37 36 36 36 36 36 36 37 37 38 38 38 38 38 38 37 37 36 36 36 36 36
34 35 35 35 36 36 36 37 37 37 37 38 38 38 38 38 39 39 39 39 39 39 39 39 39 39 39 39 39 39 39 39 39 38 38 38 38 38 37 37 37 37 38 38 38 38 38 38 38 38 38 39 39 39 39 40 40 40 40 40 39 39 39 38 38 38 37 37 37 38 38 38 38 38 38 39 38 38 38 38 37 37 36 36 36 36
35 36 36 37 37 37 37 38 38 38 38 39 39 39 39 39 40 40 40 40 40 40 40 40 40 40 40 41 41 40 40 40 40 39 39 39 39 38 38 38 38 38 39 39 39 39 39 39 39 39 39 39 40 40 40 40 40 40 40 40 40 40 40 39 39 39 39 39 39 39 39 39 39 39 39 39 39 38 38 38 38 37 36 36 36 36
Wind_Direction
291 291 291 290 290 289 288 288 287 286 286 286 286 285 285 285 285 285 287 288 289 290 290 289 287 285 284 282 282 283 284 284 285 286 286 286 286 286 285 285 285 285 285 284 284 284 284 283 283 283 283 283 283 284 284 284 285 285 285 285 284 284 284 283 284 284 284 284 284 284 284 284 284 284 284 284 283 282 282 282 282 282 282 281 280 279
291 291 290 290 289 288 287 287 286 285 285 284 285 284 284 284 285 286 287 288 289 289 288 286 284 282 281 281 282 283 284 284 285 285 285 285 285 285 284 284 284 284 284 284 284 284 283 283 283 283 283 283 283 283 284 284 284 284 284 284 283 283 283 283 283 284 284 284 284 284 283 282 282 282 281 281 281 281 281 281 281 282 282 281 280 277
290 290 290 289 288 287 286 286 284 283 283 283 283 283 283 285 286 287 287 288 288 288 286 284 282 281 281 281 282 283 284 284 285 285 284 284 284 283 283 283 283 283 284 284 283 283 283 282 282 282 282 282 282 283 283 283 283 283 283 282 282 282 282 282 282 283 283 283 282 281 281 280 279 279 279 279 279 279 280 281 281 282 282 281 279 276
290 290 289 288 287 286 285 284 283 282 281 281 282 282 283 285 285 286 286 287 287 286 284 282 281 280 281 282 283 283 284 284 284 284 283 283 283 282 282 283 283 283 283 283 283 282 282 281 281 281 282 282 282 282 282 282 282 282 281 281 281 280 281 281 281 282 282 281 280 279 279 278 278 278 278 278 278 279 280 281 281 282 281 280 278 275
290 289 288 287 286 284 283 282 281 280 279 280 281 282 283 283 284 284 285 286 285 283 281 280 280 280 282 282 283 283 283 283 282 282 282 282 282 282 282 282 282 283 283 282 282 281 281 281 281 281 281 281 281 281 281 281 281 280 280 279 279 279 280 280 280 280 280 279 279 278 277 277 277 276 277 277 278 279 279 281 281 281 281 279 277 274
289 288 287 285 284 283 282 280 279 278 279 280 280 281 281 282 282 283 284 284 283 281 280 279 280 281 281 282 282 281 281 281 281 281 281 281 281 281 282 282 282 282 282 281 281 280 280 280 280 280 281 280 280 280 280 280 279 279 278 278 278 278 279 279 279 279 279 278 278 277 276 276 276 276 276 276 277 278 279 280 281 281 280 279 277 275
288 287 285 284 283 281 280 279 278 278 279 280 280 280 280 281 282 282 282 282 280 279 279 279 280 281 281 281 280 280 280 280 280 280 280 280 281 281 282 282 282 282 281 280 280 280 279 279 280 280 280 280 280 279 279 279 278 278 277 277 277 277 278 278 278 278 278 278 277 276 276 275 275 275 275 275 276 277 278 279 280 280 280 279 277 276
287 286 284 283 282 281 280 279 278 279 279 279 280 280 281 281 281 281 280 279 278 278 278 279 280 280 279 279 279 279 279 279 279 279 279 280 281 281 282 282 282 281 280 280 279 279 279 279 279 279 279 279 279 279 278 278 277 277 276 276 276 277 277 277 278 278 277 277 276 276 275 275 274 274 274 274 275 276 277 278 279 280 280 279 278 278
286 285 283 282 281 280 280 279 279 279 279 280 281 282 282 282 280 279 278 277 277 277 278 278 278 278 277 277 277 277 278 278 278 278 279 280 281 281 282 282 281 280 279 279 278 278 278 278 278 278 278 278 278 278 278 277 277 276 276 276 276 276 276 277 277 277 277 277 276 275 274 274 273 273 272 273 273 274 276 277 278 279 280 280 280 280
285 284 283 282 281 280 280 280 279 279 280 281 283 283 283 281 279 278 276 276 276 277 277 277 277 277 276 276 276 277 277 277 277 278 279 280 280 281 281 280 280 279 278 277 277 277 277 278 278 278 278 278 278 277 277 277 276 276 276 276 276 276 277 277 277 277 277 277 276 275 274 273 272 272 271 272 272 273 275 276 278 279 280 280 281 281
285 284 283 282 281 280 280 279 280 280 281 283 284 284 283 281 279 277 277 276 276 276 276 276 275 275 275 276 276 276 276 277 277 278 279 280 280 280 279 278 277 277 276 276 277 277 277 278 278 278 278 278 278 277 277 277 276 276 276 276 276 276 277 277 277 277 277 276 275 274 273 272 272 271 271 271 272 273 274 276 277 279 280 281 281 282
285 285 284 283 282 281 281 280 280 281 282 283 284 284 283 280 278 277 277 276 276 275 274 274 274 274 275 275 275 276 276 276 277 278 279 279 279 278 277 276 275 275 275 276 276 277 278 278 278 278 278 278 278 278 278 277 277 276 276 277 277 277 277 277 277 277 277 276 275 274 273 272 271 271 270 271 271 272 273 275 277 278 279 281 282 282
285 285 284 284 283 282 282 282 281 281 282 284 285 284 282 280 278 276 276 275 274 274 273 272 272 273 274 274 275 275 276 276 277 278 278 277 277 275 274 273 273 274 275 276 277 278 278 279 279 279 279 279 279 279 278 278 278 278 277 277 277 277 278 278 277 277 276 275 275 274 273 272 271 270 270 270 271 271 273 274 276 277 279 280 281 282
285 284 284 283 283 282 282 282 281 282 282 283 284 284 282 279 276 275 274 274 273 272 272 271 271 272 273 273 274 275 275 276 276 276 276 275 274 273 272 272 273 274 275 276 278 278 279 280 280 280 280 280 280 280 280 279 279 279 279 278 278 278 278 278 277 277 276 275 274 273 272 271 271 270 270 270 270 271 272 273 274 276 278 279 280 282
283 282 281 281 281 281 281 281 281 280 281 282 283 283 281 277 274 273 272 272 271 271 270 270 271 271 272 273 273 274 274 275 275 275 273 272 271 271 271 272 273 274 276 278 279 279 280 280 280 281 281 281 281 281 281 280 280 280 279 279 279 279 279 278 277 276 275 274 273 273 272 271 270 270 269 269 269 270 271 272 274 275 277 278 279 281
281 280 279 280 280 281 281 280 280 279 279 280 280 280 278 275 272 271 271 270 270 269 269 269 270 270 271 272 273 273 273 273 273 272 271 270 269 270 271 272 274 276 277 279 280 280 280 281 281 281 282 282 282 282 281 281 281 280 280 280 280 279 279 278 277 276 275 274 273 272 271 270 270 269 269 269 269 270 271 272 273 274 276 277 279 280
280 279 279 280 281 281 281 280 279 279 278 279 278 277 275 272 270 269 269 268 268 268 268 268 269 270 270 271 271 272 272 271 270 269 268 268 268 269 271 273 275 276 278 279 280 281 281 282 282 283 283 283 283 282 282 282 281 281 281 280 280 279 279 278 277 276 274 273 272 272 271 270 270 269 269 269 269 270 271 272 273 274 275 277 278 279
279 279 280 281 281 282 281 280 279 279 278 277 276 274 271 269 268 268 267 267 266 267 267 268 268 269 269 270 270 270 269 268 267 266 266 267 268 270 272 274 275 277 278 280 281 281 282 282 283 284 284 284 283 283 283 282 282 282 281 281 280 280 279 278 277 275 274 273 272 271 271 270 270 269 269 270 270 270 271 272 273 274 275 276 277 278
280 280 280 281 281 281 281 280 279 278 276 275 273 270 268 267 266 266 265 265 265 266 266 267 267 268 268 268 268 267 266 265 265 265 265 267 268 270 272 274 276 277 278 279 280 281 282 282 283 284 284 284 284 283 283 283 282 282 282 281 280 280 279 278 276 275 274 273 272 271 270 270 270 270 270 270 270 271 271 272 273 274 274 276 277 278
280 280 280 281 281 280 279 278 276 275 273 271 269 267 265 265 264 264 264 264 265 265 265 266 266 267 267 266 266 264 264 263 263 264 266 267 269 271 273 275 276 277 278 279 280 281 281 282 283 283 284 284 283 283 283 282 282 282 282 281 280 279 278 277 276 275 274 273 272 271 270 270 270 270 270 270 271 271 272 272 273 274 275 276 277 278
280 280 280 280 279 278 276 275 273 271 269 267 265 264 263 263 262 262 262 263 263 264 264 265 265 265 265 264 263 262 262 262 263 265 266 268 270 272 274 275 276 277 278 279 280 281 281 282 283 283 283 283 283 283 282 282 282 282 281 280 280 279 278 277 276 275 274 273 272 271 271 270 270 270 270 271 271 271 272 273 273 274 275 276 277 278
278 278 278 278 276 275 273 271 269 267 265 264 263 262 262 261 261 261 261 262 262 262 263 263 263 263 262 261 260 260 261 261 263 265 267 269 271 273 274 275 276 277 278 279 280 280 281 282 282 283 283 283 282 282 282 282 281 281 281 280 279 278 277 276 276 275 274 273 272 271 271 271 270 271 271 271 271 272 273 273 274 275 275 276 277 278
277 276 276 275 273 272 269 267 265 263 262 262 261 260 260 259 259 260 260 260 260 261 261 261 261 260 259 259 259 259 260 262 264 266 268 270 271 273 274 275 276 277 278 279 279 280 281 281 282 282 282 282 282 282 281 281 281 280 280 279 279 278 277 276 276 275 274 273 273 272 272 271 271 271 271 272 272 273 273 274 274 275 276 276 277 278
275 274 274 272 271 269 267 265 263 262 261 260 259 258 258 258 258 259 259 259 259 259 259 259 258 258 258 258 259 260 261 263 265 267 269 270 271 273 274 275 276 277 278 279 279 280 280 281 281 282 282 282 281 281 281 281 281 280 280 279 278 278 277 277 276 275 274 274 273 273 272 272 272 272 272 272 273 273 274 274 275 275 276 277 277 278
274 273 272 271 269 267 265 264 262 260 259 258 257 257 257 257 257 258 258 258 258 258 258 257 257 257 258 258 259 261 263 265 266 268 269 271 272 273 274 274 275 276 277 278 279 280 280 280 281 281 281 281 281 281 281 280 280 280 279 279 278 278 277 277 276 275 275 274 274 273 273 273 273 273 273 273 273 274 274 274 275 275 276 277 278 279
273 272 271 269 268 266 264 262 260 259 257 257 256 256 256 256 257 256 257 257 257 257 256 256 256 257 258 259 261 262 264 266 268 269 271 271 272 273 274 274 275 276 277 278 278 279 279 280 280 280 280 280 280 280 280 280 280 280 279 279 278 278 278 277 276 276 275 275 274 274 274 273 273 273 274 274 274 274 275 275 276 276 277 277 278 279
271 270 269 268 266 264 262 260 258 257 256 256 256 256 256 256 256 256 256 256 256 256 255 255 256 257 258 260 262 264 266 268 270 271 272 272 273 273 274 275 275 276 277 277 278 278 279 279 279 279 279 279 279 279 279 279 279 279 279 279 279 278 278 277 277 276 276 275 275 274 274 274 274 274 274 275 275 275 275 276 276 277 277 278 279 280
269 268 267 265 264 262 260 258 257 256 256 256 255 255 255 255 255 255 255 255 255 255 255 255 256 257 259 261 264 266 268 270 271 272 273 273 273 274 275 275 276 276 277 277 278 278 278 278 278 278 278 278 279 279 279 279 279 279 279 279 279 279 278 278 277 276 276 275 275 275 275 275 275 275 275 275 275 276 276 276 277 277 277 278 279 280
267 265 264 263 261 260 259 257 257 256 256 255 255 255 255 255 255 255 255 254 254 255 255 256 257 258 260 262 265 267 269 270 272 273 273 273 274 275 275 276 276 277 277 277 277 278 278 278 278 278 278 278 278 278 278 279 279 279 279 279 279 279 278 278 277 277 276 276 276 275 275 275 275 275 275 276 276 276 276 276 277 277 278 278 279 281
265 263 262 261 260 259 258 257 256 256 255 255 255 255 255 254 254 254 254 254 254 254 255 256 258 259 261 263 265 267 269 271 272 273 273 273 274 275 276 276 277 277 277 277 277 277 278 278 278 278 278 278 278 278 278 279 279 279 279 279 279 279 279 278 278 277 277 276 276 276 276 276 276 276 276 276 276 276 276 277 277 277 278 279 280 281
263 262 261 260 259 257 256 256 255 255 255 255 255 255 254 254 254 253 253 254 254 255 255 257 258 260 262 264 265 267 269 270 272 273 273 274 274 275 276 277 277 278 278 278 277 277 277 278 278 278 278 278 278 278 278 279 279 279 279 279 279 279 279 278 278 278 277 277 276 276 276 276 276 276 276 276 276 276 277 277 277 278 278 279 280 282
262 261 260 259 257 256 255 254 255 255 255 255 255 254 254 254 253 253 253 254 254 255 256 257 259 261 263 264 266 267 269 270 271 272 273 274 275 276 277 277 278 278 278 278 278 278 277 277 278 278 278 278 278 278 278 278 279 279 279 279 279 279 279 278 278 278 277 277 277 276 276 276 276 276 276 276 277 277 277 277 277 278 279 280 281 282
261 260 259 257 255 254 254 254 254 254 254 254 254 254 254 253 253 253 254 254 255 256 257 258 260 261 263 264 266 267 268 270 271 272 273 274 276 277 278 278 278 278 279 278 278 278 278 278 278 278 278 278 278 278 278 278 278 278 279 279 279 279 279 278 278 278 277 277 277 276 276 276 276 276 277 277 277 277 277 277 278 278 279 280 281 282
260 259 257 255 254 253 253 253 253 254 254 254 254 254 253 253 254 254 254 255 256 257 258 259 260 262 263 264 266 267 269 270 271 272 274 275 276 277 278 278 278 279 279 279 279 279 279 278 278 278 278 278 278 278 278 278 278 278 278 278 278 278 278 278 278 278 278 278 277 277 276 276 276 277 277 277 277 277 277 277 278 278 279 280 281 282
259 257 255 254 252 252 252 253 253 253 254 254 254 254 253 254 254 254 255 256 257 258 259 260 262 263 264 265 266 267 269 270 271 273 274 275 276 277 278 278 279 279 279 279 279 279 279 279 279 279 279 279 279 279 278 278 278 278 278 278 278 278 278 278 278 278 278 278 277 277 277 276 277 277 277 277 277 277 277 278 278 279 279 280 281 281
257 255 253 252 251 251 252 252 253 253 253 254 253 253 254 254 254 255 256 257 258 259 260 261 262 264 264 266 266 267 269 270 272 273 274 275 276 277 277 278 278 279 279 279 279 280 280 280 280 280 280 279 279 279 279 279 279 278 278 278 278 278 278 278 278 278 278 278 278 277 277 277 277 277 277 277 277 277 277 278 278 279 279 280 281 281
255 253 251 250 251 251 252 252 253 253 253 253 253 254 254 254 255 255 256 257 258 259 261 262 263 264 265 266 267 268 269 270 271 273 274 275 276 276 277 278 278 279 279 279 280 280 280 280 280 281 280 280 280 280 280 280 280 279 278 278 278 277 277 277 277 278 278 278 278 277 277 277 277 277 277 277 277 277 277 278 278 279 279 280 281 281
253 252 251 250 250 251 252 252 253 253 254 253 253 254 254 254 255 256 257 258 259 260 261 262 263 265 266 267 268 269 269 270 271 272 274 274 275 276 277 277 278 279 279 280 280 281 281 281 281 281 281 281 281 281 281 280 280 280 279 278 278 277 277 277 277 277 277 277 277 277 277 277 277 277 277 277 277 277 278 278 279 279 280 280 281 281
252 251 251 251 251 252 252 253 253 253 254 254 254 254 254 255 255 256 257 258 259 260 262 263 264 265 266 267 268 269 270 271 271 272 273 274 275 276 277 277 278 279 280 280 281 281 282 282 282 282 282 282 281 281 281 281 280 280 280 279 278 277 277 276 276 276 276 276 276 276 276 277 277 277 277 277 277 277 278 278 279 279 280 280 281 281
252 252 251 252 252 253 253 254 254 254 254 254 254 254 255 255 256 256 257 259 260 261 262 263 264 265 266 267 268 269 270 271 271 272 273 274 275 276 277 277 278 279 280 281 281 282 282 283 283 283 283 282 282 281 281 281 280 280 280 279 279 278 277 276 276 275 275 275 275 275 275 276 276 277 277 277 277 278 278 279 279 280 280 281 281 281
252 252 252 253 253 253 254 254 254 254 254 254 255 255 255 255 256 257 258 259 260 261 262 263 264 266 267 267 268 269 270 270 271 272 273 274 275 276 276 278 279 280 280 281 282 283 283 283 283 284 283 283 283 282 281 281 280 280 279 279 278 278 278 276 276 275 274 274 274 274 275 275 276 276 277 277 277 278 279 279 280 281 281 281 281 281
253 253 253 253 254 254 254 255 255 255 255 255 255 255 255 256 256 257 258 259 260 261 262 263 264 265 266 267 268 269 270 270 271 272 273 274 275 276 277 278 279 280 281 282 282 283 283 284 284 284 283 283 283 282 281 281 280 279 279 278 278 278 277 276 275 275 274 274 274 274 274 275 275 276 276 277 278 278 279 280 281 281 281 281 281 281
253 253 254 254 254 254 255 255 255 255 255 255 255 255 255 256 257 258 258 259 260 261 263 264 265 266 266 267 268 269 270 271 271 272 273 274 275 276 277 278 279 280 281 282 282 283 283 283 284 283 283 283 282 281 280 280 280 279 279 278 278 277 277 276 275 275 274 274 274 274 274 275 275 276 276 277 278 279 280 280 281 281 282 282 281 281
254 254 254 254 254 255 255 255 255 255 255 255 255 255 256 256 257 258 259 260 261 262 263 264 265 266 267 267 268 269 270 271 271 272 273 274 275 276 277 278 279 280 281 281 282 282 283 283 283 283 283 282 281 280 280 279 279 279 279 278 278 277 276 275 275 274 273 273 273 273 274 274 275 276 276 277 278 279 280 281 282 282 282 281 281 281
254 254 255 255 255 255 255 255 255 255 255 255 255 255 256 257 258 258 259 260 261 263 264 265 266 266 267 268 269 269 270 271 271 272 273 274 275 276 277 278 279 279 280 281 281 282 282 282 282 282 282 281 280 279 279 279 279 278 278 278 277 277 276 275 274 273 272 272 272 272 273 274 275 276 277 278 279 280 281 282 282 282 282 281 281 281
255 256 256 256 256 256 255 255 255 255 255 255 255 256 257 257 258 259 260 261 262 263 264 265 266 266 267 268 269 269 270 270 271 272 273 274 275 276 277 278 278 279 280 280 281 281 282 282 282 282 281 280 279 278 278 278 278 278 278 277 277 276 275 274 273 272 271 271 271 271 272 273 274 276 277 278 279 281 281 282 282 282 281 281 281 280
257 257 257 257 257 256 256 256 256 256 256 256 256 256 257 258 258 259 260 261 262 263 264 265 266 267 267 268 269 269 270 270 271 272 273 274 274 275 276 277 278 279 279 280 281 281 281 282 282 281 281 280 279 278 278 278 277 277 277 277 277 276 275 274 273 272 271 271 270 271 271 272 274 276 277 279 280 281 281 282 281 281 281 281 280 280
259 259 258 258 258 258 257 257 257 257 257 257 257 257 258 258 259 260 260 261 262 263 264 265 266 266 267 268 269 270 270 270 271 272 273 273 274 275 276 277 277 278 279 280 280 281 281 281 281 281 280 280 279 278 278 278 277 277 277 277 276 275 274 274 273 272 271 271 270 270 271 272 274 276 277 279 280 281 281 281 281 280 280 280 280 279
261 260 260 260 259 259 259 258 258 258 258 258 258 258 259 259 260 260 261 262 263 263 264 265 266 267 268 268 269 270 270 271 271 272 273 273 274 274 275 276 277 277 278 279 279 280 280 281 281 281 280 280 279 278 278 278 277 277 277 276 275 275 274 274 273 272 272 271 271 271 271 272 274 276 277 279 280 281 281 280 280 279 279 279 279 278
262 262 261 261 260 260 260 260 260 259 259 259 259 260 260 260 261 262 262 263 264 264 265 266 267 267 268 269 269 270 271 271 272 272 273 273 274 274 275 275 276 277 277 278 279 279 280 280 280 280 280 280 279 279 278 278 277 277 276 275 275 274 274 274 273 273 272 272 272 272 272 273 274 275 277 279 279 280 280 279 279 278 278 278 278 277
262 262 262 262 261 261 261 261 261 260 260 260 261 261 261 261 262 263 263 264 265 265 266 267 268 268 269 269 270 271 271 272 272 272 272 273 273 274 274 275 275 276 277 277 278 278 279 279 279 279 279 279 279 279 278 278 277 276 275 275 274 274 273 273 273 273 273 272 272 273 273 274 274 276 277 278 279 279 278 278 277 277 277 277 277 277
Height
5713 5712 5711 5711 5710 5709 5706 5706 5705 5704 5703 5703 5702 5702 5701 5702 5701 5700 5700 5699 5699 5698 5697 5696 5696 5695 5695 5694 5694 5694 5694 5693 5693 5692 5692 5692 5692 5691 5691 5690 5690 5690 5689 5689 5689 5689 5688 5688 5688 5687 5687 5687 5687 5686 5686 5686 5686 5685 5685 5685 5685 5685 5685 5684 5684 5684 5684 5684 5684 5684 5684 5684 5684 5684 5684 5684 5684 5684 5684 5684 5684 5684 5684 5684 5684 5684
5710 5709 5708 5707 5707 5706 5703 5703 5702 5702 5700 5700 5699 5699 5699 5699 5698 5697 5697 5696 5695 5695 5694 5694 5693 5693 5692 5692 5691 5691 5691 5690 5690 5690 5690 5689 5689 5689 5689 5689 5688 5688 5688 5687 5687 5687 5686 5686 5686 5685 5685 5685 5685 5684 5684 5684 5684 5684 5683 5683 5683 5683 5683 5683 5683 5683 5682 5682 5682 5682 5682 5682 5682 5682 5682 5682 5682 5683 5683 5683 5683 5683 5683 5682 5682 5682
5707 5705 5704 5703 5702 5701 5700 5699 5699 5699 5698 5697 5696 5696 5696 5696 5695 5694 5694 5693 5692 5692 5691 5691 5690 5690 5689 5689 5689 5689 5689 5688 5688 5688 5687 5687 5687 5687 5687 5686 5686 5686 5685 5685 5685 5684 5684 5684 5684 5683 5683 5683 5683 5682 5682 5682 5682 5682 5681 5681 5681 5681 5681 5681 5681 5681 5681 5680 5680 5680 5680 5680 5680 5680 5681 5681 5681 5681 5681 5681 5681 5681 5681 5681 5681 5681
5704 5702 5700 5699 5698 5698 5697 5697 5696 5695 5695 5694 5694 5694 5693 5693 5692 5691 5690 5690 5690 5689 5689 5689 5688 5687 5687 5687 5686 5686 5686 5686 5685 5685 5685 5685 5685 5685 5684 5684 5684 5684 5683 5683 5683 5682 5682 5682 5682 5681 5681 5681 5681 5680 5680 5680 5680 5680 5679 5679 5679 5679 5679 5679 5679 5679 5679 5679 5679 5679 5679 5679 5679 5679 5679 5679 5679 5679 5679 5679 5679 5679 5679 5679 5679 5679
5700 5698 5697 5696 5695 5694 5694 5694 5693 5692 5692 5692 5692 5691 5690 5689 5689 5688 5688 5687 5687 5687 5686 5686 5685 5685 5684 5684 5684 5684 5684 5683 5683 5683 5683 5683 5683 5682 5682 5682 5682 5682 5681 5681 5680 5680 5680 5679 5679 5679 5679 5679 5679 5679 5678 5678 5678 5678 5678 5678 5678 5678 5677 5677 5677 5677 5677 5677 5677 5677 5677 5677 5677 5677 5677 5677 5677 5678 5678 5678 5678 5677 5677 5677 5677 5677
5696 5695 5693 5692 5692 5691 5691 5690 5690 5689 5689 5689 5689 5688 5687 5687 5686 5686 5685 5684 5684 5684 5683 5683 5683 5682 5682 5682 5682 5681 5681 5681 5681 5681 5681 5680 5680 5680 5680 5680 5679 5679 5679 5679 5679 5678 5678 5678 5677 5677 5677 5677 5677 5676 5676 5676 5676 5676 5676 5676 5676 5676 5676 5676 5675 5675 5675 5675 5675 5675 5675 5675 5675 5675 5675 5676 5676 5676 5676 5676 5676 5676 5676 5676 5676 5676
5692 5691 5690 5689 5689 5688 5688 5687 5687 5687 5687 5686 5686 5685 5684 5684 5684 5683 5683 5682 5682 5681 5680 5680 5680 5680 5679 5679 5679 5679 5679 5679 5679 5679 5678 5678 5678 5678 5678 5678 5677 5677 5677 5677 5676 5676 5676 5675 5675 5675 5675 5674 5674 5674 5674 5674 5674 5674 5674 5674 5674 5674 5674 5674 5674 5674 5674 5674 5674 5674 5674 5674 5674 5674 5674 5674 5674 5674 5674 5674 5674 5674 5674 5674 5674 5674
5688 5688 5687 5687 5686 5685 5684 5684 5684 5684 5684 5684 5683 5682 5682 5681 5680 5680 5679 5679 5679 5678 5678 5678 5677 5677 5677 5677 5677 5677 5677 5676 5676 5676 5676 5676 5676 5675 5675 5675 5675 5675 5674 5674 5674 5674 5674 5674 5673 5673 5673 5673 5673 5673 5672 5672 5672 5672 5672 5672 5672 5672 5672 5672 5672 5672 5672 5672 5672 5672 5672 5672 5672 5672 5672 5672 5672 5672 5672 5672 5672 5672 5672 5672 5672 5672
5685 5684 5684 5684 5684 5683 5682 5682 5681 5681 5681 5680 5680 5679 5679 5678 5677 5677 5676 5676 5676 5675 5675 5675 5675 5675 5674 5674 5674 5674 5674 5674 5674 5674 5674 5674 5674 5673 5673 5673 5673 5673 5672 5672 5672 5672 5672 5671 5671 5671 5671 5671 5671 5671 5670 5670 5670 5670 5670 5670 5670 5670 5670 5670 5670 5670 5670 5670 5670 5670 5670 5670 5670 5670 5670 5670 5670 5670 5670 5670 5670 5670 5670 5670 5670 5670
5682 5682 5681 5680 5680 5680 5680 5679 5678 5678 5678 5677 5677 5676 5675 5675 5674 5674 5674 5673 5673 5673 5673 5673 5673 5672 5672 5672 5672 5672 5672 5672 5672 5672 5672 5671 5671 5671 5671 5671 5670 5670 5670 5670 5670 5670 5669 5669 5669 5669 5669 5669 5669 5669 5669 5669 5669 5669 5669 5668 5668 5668 5668 5668 5668 5668 5668 5668 5668 5668 5668 5668 5668 5668 5668 5668 5668 5669 5669 5669 5669 5669 5669 5668 5668 5668
5679 5679 5678 5678 5677 5677 5677 5676 5675 5675 5675 5674 5674 5673 5672 5672 5671 5671 5670 5670 5670 5670 5670 5670 5670 5669 5669 5669 5669 5669 5669 5669 5669 5669 5669 5669 5669 5669 5669 5669 5669 5668 5668 5668 5668 5668 5668 5667 5667 5667 5667 5667 5667 5667 5667 5667 5667 5667 5666 5666 5666 5666 5666 5666 5666 5666 5666 5666 5666 5666 5666 5666 5666 5666 5666 5666 5666 5666 5666 5666 5666 5666 5666 5666 5666 5666
5676 5675 5675 5675 5674 5674 5674 5673 5672 5672 5672 5671 5670 5669 5669 5669 5668 5668 5668 5668 5668 5668 5668 5667 5667 5667 5667 5667 5667 5667 5667 5667 5667 5667 5667 5667 5667 5667 5667 5666 5666 5666 5666 5666 5666 5666 5666 5665 5665 5665 5665 5665 5665 5665 5665 5665 5664 5664 5664 5664 5664 5664 5664 5664 5664 5664 5664 5664 5664 5664 5664 5664 5664 5664 5664 5664 5664 5664 5664 5664 5664 5664 5664 5664 5664 5664
5672 5672 5672 5671 5671 5670 5670 5670 5669 5669 5669 5668 5667 5666 5666 5666 5665 5665 5665 5665 5665 5665 5665 5665 5664 5664 5664 5664 5665 5665 5665 5665 5665 5665 5665 5664 5664 5664 5664 5664 5664 5664 5664 5664 5664 5664 5664 5664 5664 5663 5663 5663 5663 5663 5663 5663 5663 5662 5662 5662 5662 5662 5662 5662 5662 5662 5662 5662 5662 5662 5662 5662 5662 5662 5662 5662 5662 5663 5663 5663 5663 5663 5663 5663 5663 5663
5669 5669 5668 5668 5667 5667 5667 5667 5666 5665 5665 5664 5664 5664 5663 5663 5663 5663 5663 5662 5662 5662 5662 5662 5662 5662 5662 5662 5662 5662 5663 5663 5663 5663 5663 5662 5662 5662 5662 5662 5662 5662 5662 5662 5662 5662 5662 5662 5661 5661 5661 5661 5661 5661 5660 5660 5660 5660 5660 5660 5660 5660 5660 5660 5660 5660 5660 5660 5660 5660 5660 5660 5660 5660 5660 5660 5660 5660 5660 5661 5661 5661 5661 5661 5661 5661
5665 5665 5664 5664 5664 5664 5664 5663 5663 5662 5661 5661 5661 5660 5660 5660 5660 5660 5659 5659 5659 5660 5659 5660 5660 5660 5660 5660 5660 5660 5660 5660 5660 5660 5660 5660 5660 5660 5660 5660 5660 5660 5660 5660 5660 5660 5660 5659 5659 5659 5659 5659 5659 5659 5659 5658 5658 5658 5658 5658 5658 5658 5658 5658 5658 5658 5657 5657 5658 5658 5658 5658 5658 5658 5658 5658 5658 5659 5659 5659 5659 5659 5659 5659 5659 5659
5662 5661 5660 5660 5660 5660 5659 5659 5659 5659 5658 5658 5658 5657 5657 5657 5657 5657 5657 5657 5657 5657 5657 5657 5657 5658 5658 5658 5658 5658 5658 5658 5658 5659 5659 5658 5658 5658 5658 5658 5658 5658 5658 5658 5658 5658 5658 5657 5657 5657 5657 5657 5657 5657 5656 5656 5656 5656 5656 5655 5655 5655 5655 5655 5655 5655 5655 5655 5655 5655 5655 5656 5656 5656 5656 5656 5656 5656 5656 5657 5657 5657 5657 5657 5657 5657
5658 5657 5657 5656 5656 5656 5656 5656 5656 5655 5655 5654 5654 5654 5654 5654 5654 5654 5654 5654 5654 5654 5654 5654 5655 5655 5655 5656 5655 5655 5655 5656 5656 5656 5657 5656 5656 5656 5656 5656 5656 5656 5656 5656 5656 5655 5655 5655 5655 5655 5655 5655 5654 5654 5654 5654 5654 5654 5654 5653 5653 5653 5653 5653 5653 5653 5653 5653 5653 5653 5653 5654 5654 5654 5654 5654 5654 5654 5654 5654 5654 5654 5654 5654 5654 5654
5654 5654 5653 5653 5652 5652 5652 5652 5652 5652 5651 5651 5651 5651 5651 5651 5651 5651 5652 5652 5652 5652 5652 5652 5652 5653 5653 5653 5653 5653 5653 5654 5654 5654 5654 5654 5654 5654 5654 5654 5654 5654 5654 5654 5654 5653 5653 5653 5653 5653 5653 5653 5652 5652 5652 5652 5651 5651 5651 5651 5651 5651 5651 5651 5651 5651 5651 5651 5651 5651 5651 5651 5651 5651 5652 5652 5652 5652 5652 5652 5652 5652 5652 5652 5652 5652
5650 5650 5649 5649 5649 5649 5649 5649 5649 5649 5648 5648 5648 5648 5648 5648 5649 5649 5649 5649 5649 5649 5649 5650 5650 5650 5651 5651 5651 5651 5651 5651 5652 5652 5653 5653 5652 5652 5652 5652 5652 5652 5652 5652 5651 5651 5651 5651 5650 5650 5650 5650 5650 5650 5649 5649 5649 5649 5649 5649 5649 5649 5649 5649 5649 5649 5649 5649 5649 5649 5649 5649 5649 5649 5649 5649 5650 5650 5650 5650 5650 5650 5650 5650 5650 5650
5647 5646 5646 5646 5645 5645 5645 5645 5645 5645 5645 5645 5645 5645 5645 5646 5646 5646 5646 5647 5647 5647 5648 5648 5648 5648 5649 5649 5649 5649 5649 5649 5649 5650 5650 5650 5650 5650 5649 5649 5649 5649 5650 5649 5649 5649 5649 5649 5648 5648 5648 5648 5648 5648 5647 5647 5647 5647 5647 5647 5646 5646 5646 5646 5646 5646 5646 5646 5646 5647 5647 5647 5647 5647 5647 5647 5647 5648 5648 5648 5648 5648 5648 5648 5648 5648
5643 5643 5643 5643 5643 5642 5642 5642 5642 5642 5642 5642 5642 5642 5643 5643 5644 5644 5644 5644 5645 5645 5645 5645 5646 5646 5646 5647 5647 5647 5647 5647 5647 5648 5648 5648 5648 5648 5647 5647 5647 5647 5648 5647 5647 5647 5647 5646 5646 5646 5646 5646 5646 5645 5645 5645 5645 5644 5644 5644 5644 5644 5644 5644 5644 5644 5644 5644 5644 5644 5644 5644 5645 5645 5645 5645 5645 5645 5645 5645 5645 5645 5645 5645 5645 5645
5640 5640 5639 5639 5639 5639 5639 5639 5639 5639 5639 5639 5639 5640 5640 5641 5641 5641 5642 5642 5643 5643 5643 5643 5644 5644 5644 5644 5644 5644 5645 5645 5645 5645 5646 5645 5645 5645 5645 5645 5645 5645 5645 5645 5645 5644 5644 5644 5644 5644 5644 5644 5644 5643 5643 5643 5643 5642 5642 5642 5642 5642 5642 5642 5642 5642 5642 5642 5642 5642 5642 5642 5642 5643 5643 5643 5643 5643 5643 5643 5643 5643 5643 5643 5643 5643
5637 5637 5636 5636 5636 5636 5636 5636 5636 5636 5636 5636 5637 5638 5638 5638 5639 5639 5640 5640 5640 5640 5641 5641 5641 5641 5641 5642 5642 5642 5642 5643 5643 5643 5643 5643 5643 5643 5643 5643 5643 5643 5643 5643 5643 5642 5642 5642 5642 5642 5642 5641 5641 5641 5641 5640 5640 5640 5640 5640 5640 5639 5639 5639 5639 5639 5639 5639 5640 5640 5640 5640 5640 5640 5640 5640 5640 5640 5640 5640 5640 5640 5640 5640 5640 5640
5634 5634 5633 5633 5633 5633 5633 5633 5633 5634 5634 5634 5634 5635 5635 5636 5636 5637 5637 5637 5638 5638 5638 5639 5639 5639 5639 5640 5640 5640 5640 5640 5640 5641 5641 5641 5641 5641 5641 5641 5641 5641 5641 5641 5640 5640 5640 5640 5640 5640 5639 5639 5639 5639 5639 5638 5638 5638 5638 5638 5637 5637 5637 5637 5637 5637 5637 5637 5637 5637 5637 5638 5638 5638 5638 5638 5638 5638 5638 5638 5638 5638 5638 5638 5637 5637
5630 5630 5630 5630 5630 5630 5630 5631 5631 5631 5631 5632 5632 5633 5633 5633 5634 5634 5634 5635 5635 5636 5636 5637 5637 5637 5638 5638 5638 5638 5638 5638 5638 5639 5639 5639 5639 5639 5639 5639 5639 5639 5639 5638 5638 5638 5638 5638 5638 5638 5637 5637 5637 5636 5636 5636 5636 5636 5635 5635 5635 5635 5635 5635 5635 5635 5635 5635 5635 5635 5635 5635 5635 5635 5635 5635 5635 5635 5635 5635 5635 5635 5635 5635 5635 5635
5628 5628 5628 5628 5628 5628 5628 5628 5629 5629 5629 5629 5630 5630 5631 5631 5631 5632 5632 5633 5633 5634 5634 5634 5634 5635 5635 5635 5636 5636 5636 5636 5636 5636 5637 5637 5637 5637 5637 5637 5637 5637 5636 5636 5636 5636 5635 5635 5635 5635 5635 5635 5634 5634 5634 5634 5634 5633 5633 5633 5633 5633 5633 5633 5633 5633 5633 5633 5633 5633 5633 5633 5633 5633 5633 5633 5633 5633 5633 5633 5632 5632 5632 5632 5632 5632
5625 5625 5625 5625 5625 5626 5626 5626 5626 5627 5627 5627 5628 5628 5629 5629 5629 5630 5630 5631 5631 5631 5632 5632 5632 5632 5633 5633 5633 5634 5634 5634 5634 5634 5634 5634 5634 5634 5634 5634 5634 5634 5634 5634 5634 5634 5633 5633 5633 5633 5633 5632 5632 5632 5632 5631 5631 5631 5631 5631 5631 5630 5630 5630 5630 5630 5630 5630 5630 5630 5630 5630 5630 5630 5630 5630 5630 5630 5630 5630 5630 5630 5629 5629 5629 5629
5623 5623 5623 5623 5623 5623 5623 5624 5624 5624 5625 5625 5625 5626 5626 5627 5627 5628 5628 5629 5629 5629 5629 5629 5630 5630 5630 5630 5631 5631 5631 5631 5631 5631 5631 5632 5632 5632 5632 5632 5632 5632 5632 5632 5631 5631 5631 5631 5631 5630 5630 5630 5630 5629 5629 5629 5629 5629 5629 5628 5628 5628 5628 5628 5628 5628 5628 5628 5628 5628 5628 5628 5628 5628 5628 5628 5628 5627 5627 5627 5627 5627 5627 5627 5626 5626
5620 5620 5620 5621 5621 5621 5621 5621 5622 5622 5622 5623 5623 5624 5624 5624 5625 5625 5626 5626 5627 5627 5627 5627 5628 5628 5628 5628 5629 5629 5629 5629 5629 5629 5629 5629 5629 5629 5630 5629 5629 5629 5629 5629 5629 5629 5629 5628 5628 5628 5628 5627 5627 5627 5627 5626 5626 5626 5626 5626 5626 5626 5625 5625 5625 5625 5625 5625 5625 5625 5625 5625 5625 5625 5625 5625 5625 5625 5625 5624 5624 5624 5624 5624 5624 5624
5618 5618 5618 5618 5618 5619 5619 5619 5619 5619 5620 5620 5621 5621 5622 5622 5623 5623 5624 5624 5624 5625 5625 5625 5625 5626 5626 5626 5626 5626 5626 5627 5626 5626 5626 5626 5627 5627 5627 5627 5627 5627 5627 5627 5626 5626 5626 5626 5625 5625 5625 5625 5624 5624 5624 5624 5624 5624 5623 5623 5623 5623 5623 5623 5623 5623 5623 5623 5623 5623 5623 5623 5622 5622 5622 5622 5622 5622 5622 5622 5622 5621 5621 5621 5621 5621
5615 5615 5615 5616 5616 5616 5616 5617 5617 5617 5618 5618 5618 5619 5619 5620 5620 5620 5621 5621 5622 5623 5623 5623 5623 5623 5624 5624 5624 5624 5624 5624 5624 5624 5624 5624 5624 5624 5624 5624 5624 5624 5624 5624 5624 5623 5623 5623 5623 5623 5622 5622 5622 5622 5621 5621 5621 5621 5621 5620 5620 5620 5620 5620 5620 5620 5620 5620 5620 5620 5620 5620 5620 5620 5619 5619 5619 5619 5619 5619 5619 5619 5618 5618 5618 5618
5613 5613 5613 5613 5613 5614 5614 5614 5614 5615 5615 5615 5616 5616 5617 5617 5618 5618 5619 5619 5619 5620 5620 5621 5621 5621 5621 5621 5621 5621 5622 5622 5622 5621 5621 5621 5622 5622 5622 5622 5622 5621 5621 5621 5621 5620 5620 5620 5620 5620 5620 5619 5619 5619 5619 5618 5618 5618 5618 5618 5618 5617 5617 5617 5617 5617 5617 5617 5617 5617 5617 5617 5617 5617 5617 5617 5617 5617 5616 5616 5616 5616 5615 5615 5615 5615
5610 5610 5610 5610 5611 5611 5611 5612 5612 5612 5613 5613 5614 5614 5614 5615 5615 5616 5616 5616 5617 5617 5618 5618 5619 5619 5619 5619 5619 5619 5619 5619 5619 5619 5619 5619 5619 5619 5619 5619 5619 5619 5619 5618 5618 5618 5618 5617 5618 5618 5617 5617 5616 5616 5616 5615 5615 5615 5615 5615 5615 5614 5614 5614 5614 5614 5614 5614 5614 5614 5614 5614 5614 5614 5614 5614 5614 5614 5614 5613 5613 5613 5613 5612 5612 5612
5607 5607 5608 5608 5608 5609 5609 5609 5609 5610 5610 5611 5611 5612 5612 5612 5613 5613 5614 5614 5614 5614 5615 5615 5616 5616 5616 5616 5616 5617 5617 5617 5616 5616 5616 5616 5616 5616 5616 5616 5616 5616 5616 5615 5615 5615 5615 5615 5615 5614 5614 5614 5614 5614 5613 5613 5613 5613 5612 5612 5612 5612 5612 5612 5612 5612 5612 5612 5612 5612 5612 5611 5611 5611 5611 5611 5611 5611 5610 5610 5610 5610 5609 5609 5609 5609
5604 5605 5605 5605 5606 5606 5606 5607 5607 5608 5608 5608 5609 5609 5609 5610 5610 5611 5611 5611 5612 5612 5612 5613 5613 5613 5614 5614 5614 5614 5614 5614 5614 5614 5613 5613 5614 5614 5614 5614 5614 5613 5613 5613 5612 5612 5612 5612 5612 5612 5611 5611 5611 5611 5610 5610 5610 5609 5609 5609 5609 5609 5609 5609 5609 5609 5609 5609 5609 5609 5609 5608 5608 5608 5608 5608 5608 5608 5608 5607 5607 5607 5607 5606 5606 5606
5602 5602 5603 5603 5603 5604 5604 5604 5605 5605 5605 5606 5606 5607 5607 5607 5608 5608 5609 5609 5609 5609 5609 5610 5610 5610 5610 5611 5611 5611 5612 5611 5611 5611 5611 5611 5611 5611 5611 5611 5611 5610 5610 5610 5609 5609 5609 5609 5609 5609 5609 5608 5608 5608 5608 5607 5607 5607 5607 5606 5606 5606 5606 5606 5606 5606 5606 5606 5606 5605 5605 5605 5605 5605 5605 5605 5605 5604 5604 5604 5604 5604 5604 5603 5603 5603
5599 5600 5600 5600 5601 5601 5601 5602 5602 5603 5603 5604 5604 5604 5604 5605 5605 5605 5606 5606 5606 5607 5607 5607 5607 5608 5608 5608 5608 5608 5609 5608 5608 5608 5608 5608 5608 5608 5608 5608 5608 5608 5607 5607 5607 5607 5606 5606 5606 5606 5605 5605 5605 5605 5605 5604 5604 5604 5604 5604 5603 5603 5603 5603 5603 5603 5603 5603 5603 5603 5602 5602 5602 5602 5602 5602 5602 5601 5601 5601 5601 5601 5600 5600 5600 5599
5597 5597 5598 5598 5598 5599 5599 5599 5600 5600 5600 5601 5601 5601 5602 5602 5603 5603 5603 5604 5604 5604 5604 5604 5604 5605 5605 5605 5605 5605 5605 5605 5605 5605 5605 5605 5605 5605 5605 5605 5605 5604 5604 5604 5604 5604 5604 5603 5603 5603 5602 5602 5602 5602 5602 5602 5601 5601 5600 5600 5600 5600 5600 5600 5600 5600 5600 5599 5599 5599 5599 5599 5599 5599 5599 5599 5598 5598 5598 5598 5598 5597 5597 5597 5597 5596
5594 5594 5595 5595 5596 5596 5596 5597 5597 5598 5598 5598 5599 5599 5599 5600 5600 5600 5601 5601 5601 5601 5601 5602 5602 5602 5602 5602 5603 5603 5603 5603 5603 5603 5603 5603 5602 5602 5602 5602 5602 5602 5601 5601 5601 5601 5600 5600 5600 5599 5599 5599 5599 5599 5599 5599 5598 5598 5598 5597 5597 5597 5597 5597 5597 5597 5597 5596 5596 5596 5596 5596 5596 5596 5595 5595 5595 5595 5594 5594 5594 5594 5594 5594 5593 5593
5592 5592 5592 5593 5593 5593 5594 5594 5594 5595 5595 5595 5596 5596 5597 5597 5598 5598 5598 5598 5599 5599 5599 5599 5599 5599 5599 5599 5600 5600 5600 5600 5600 5600 5600 5599 5599 5599 5599 5599 5599 5599 5598 5598 5598 5598 5597 5597 5597 5597 5596 5596 5596 5596 5596 5596 5595 5595 5594 5594 5594 5594 5594 5594 5594 5594 5593 5593 5593 5593 5593 5593 5593 5593 5592 5592 5592 5591 5591 5591 5591 5591 5591 5590 5590 5590
5589 5589 5590 5590 5590 5591 5591 5591 5592 5592 5593 5593 5593 5594 5594 5594 5595 5595 5595 5595 5596 5596 5596 5596 5596 5596 5597 5597 5597 5597 5597 5597 5597 5597 5597 5597 5596 5596 5596 5596 5596 5595 5595 5595 5595 5594 5594 5594 5594 5594 5594 5593 5593 5593 5593 5593 5592 5592 5592 5591 5591 5591 5591 5591 5591 5590 5590 5590 5590 5590 5590 5589 5589 5589 5589 5589 5588 5588 5588 5588 5588 5588 5587 5587 5587 5586
5587 5587 5587 5588 5588 5588 5588 5589 5589 5589 5590 5590 5591 5591 5591 5592 5592 5592 5593 5593 5593 5593 5593 5593 5593 5594 5594 5594 5594 5594 5594 5594 5594 5594 5594 5594 5593 5593 5593 5593 5593 5592 5592 5592 5592 5591 5591 5591 5591 5590 5590 5590 5590 5589 5589 5589 5589 5589 5589 5589 5588 5588 5588 5588 5587 5587 5587 5586 5586 5586 5586 5586 5586 5586 5586 5585 5585 5585 5585 5585 5584 5584 5584 5584 5584 5583
5584 5584 5585 5585 5585 5585 5586 5586 5586 5587 5587 5588 5588 5588 5589 5589 5589 5589 5590 5590 5590 5590 5590 5590 5590 5591 5591 5591 5591 5591 5591 5591 5591 5591 5590 5590 5590 5590 5590 5589 5589 5589 5589 5589 5589 5588 5588 5588 5588 5587 5587 5587 5587 5586 5586 5586 5586 5586 5585 5585 5585 5585 5585 5585 5584 5584 5584 5583 5583 5583 5583 5583 5583 5583 5583 5582 5582 5582 5582 5581 5581 5581 5581 5580 5580 5580
5582 5582 5582 5582 5582 5583 5583 5584 5584 5584 5585 5585 5585 5585 5586 5586 5586 5586 5587 5587 5587 5587 5587 5587 5588 5588 5588 5588 5589 5589 5588 5588 5588 5587 5587 5587 5587 5587 5586 5586 5586 5586 5585 5585 5585 5585 5585 5585 5584 5584 5584 5584 5583 5583 5583 5582 5582 5582 5582 5582 5582 5582 5582 5581 5581 5581 5580 5580 5580 5580 5580 5580 5580 5579 5579 5579 5579 5579 5578 5578 5578 5578 5578 5577 5577 5576
5579 5579 5579 5579 5580 5580 5580 5581 5581 5582 5582 5582 5582 5583 5583 5583 5583 5583 5584 5584 5584 5584 5584 5584 5584 5584 5584 5585 5585 5585 5585 5585 5584 5584 5584 5584 5584 5584 5583 5583 5583 5583 5582 5582 5582 5582 5582 5581 5581 5581 5581 5580 5580 5579 5579 5579 5579 5579 5579 5579 5579 5579 5579 5578 5578 5578 5578 5577 5577 5577 5577 5577 5576 5576 5576 5576 5575 5575 5575 5575 5574 5574 5574 5574 5574 5573
5576 5576 5577 5577 5577 5578 5578 5578 5579 5579 5579 5579 5579 5580 5580 5580 5580 5580 5580 5581 5581 5581 5581 5581 5581 5581 5581 5581 5582 5582 5582 5582 5581 5581 5580 5580 5580 5580 5580 5579 5579 5579 5579 5579 5579 5578 5578 5578 5578 5578 5577 5577 5577 5576 5576 5575 5575 5575 5575 5576 5576 5576 5575 5575 5575 5574 5574 5574 5574 5574 5574 5574 5573 5573 5573 5573 5572 5572 5572 5572 5571 5571 5571 5570 5570 5570
5573 5574 5574 5574 5574 5574 5575 5575 5575 5576 5576 5576 5577 5577 5577 5577 5577 5577 5577 5578 5578 5578 5578 5578 5578 5578 5578 5578 5578 5579 5578 5578 5578 5578 5577 5577 5577 5576 5576 5576 5576 5576 5575 5575 5575 5575 5575 5574 5574 5574 5574 5574 5573 5573 5572 5572 5572 5572 5572 5572 5572 5572 5572 5572 5571 5571 5571 5571 5571 5571 5571 5570 5570 5570 5569 5569 5569 5569 5568 5568 5568 5568 5567 5567 5567 5566
5570 5571 5571 5571 5571 5572 5572 5572 5572 5573 5573 5573 5574 5574 5574 5574 5574 5574 5574 5574 5574 5574 5575 5575 5574 5574 5574 5575 5575 5575 5575 5574 5574 5574 5574 5574 5574 5573 5573 5573 5573 5572 5572 5572 5572 5571 5571 5571 5571 5570 5570 5570 5570 5569 5569 5569 5568 5568 5568 5568 5568 5569 5569 5568 5568 5568 5568 5568 5568 5568 5568 5567 5567 5567 5566 5566 5566 5565 5565 5564 5564 5564 5564 5564 5563 5563
5567 5568 5568 5568 5568 5569 5569 5569 5569 5569 5570 5570 5570 5570 5570 5571 5571 5571 5571 5571 5571 5571 5571 5571 5571 5571 5571 5571 5571 5571 5571 5571 5571 5571 5570 5570 5570 5570 5569 5569 5569 5569 5569 5569 5568 5568 5568 5568 5567 5567 5567 5566 5566 5566 5565 5565 5565 5565 5564 5564 5564 5564 5564 5564 5564 5564 5564 5564 5564 5564 5564 5564 5564 5564 5563 5563 5563 5562 5562 5561 5561 5561 5560 5560 5560 5559
5564 5564 5564 5565 5565 5565 5565 5566 5566 5566 5566 5567 5567 5567 5567 5567 5567 5567 5567 5567 5567 5567 5568 5568 5567 5567 5567 5567 5567 5568 5568 5567 5567 5567 5567 5567 5566 5566 5566 5566 5566 5565 5565 5565 5565 5565 5564 5564 5564 5564 5563 5563 5562 5562 5562 5562 5562 5561 5561 5561 5561 5560 5560 5560 5560 5560 5560 5560 5561 5561 5561 5560 5560 5560 5560 5559 5559 5559 5558 5558 5557 5557 5557 5557 5556 5556
5561 5561 5561 5561 5561 5562 5562 5562 5562 5563 5563 5563 5563 5563 5563 5563 5563 5563 5563 5563 5564 5564 5564 5564 5564 5564 5563 5564 5564 5564 5564 5564 5564 5563 5563 5563 5563 5563 5562 5562 5562 5562 5562 5561 5561 5561 5561 5561 5560 5560 5560 5559 5559 5559 5558 5558 5558 5558 5558 5557 5557 5557 5556 5556 5556 5556 5556 5556 5557 5557 5557 5557 5557 5557 5557 5556 5556 5555 5555 5554 5554 5554 5554 5553 5553 5553